Theta_e
311 312 313 314 313 314 313 315 322 327 333 332 331 331 332 331 331 334 335 334 334 333 330 328 326 325 324 324 322 320 320 318 321 319 316 320 320 318 319 320 321 324 327
309 310 311 312 312 314 314 314 321 329 332 334 334 330 331 327 329 331 333 334 334 332 329 327 325 325 323 322 321 324 316 316 320 314 313 312 316 320 320 319 321 321 325
307 308 310 311 311 312 316 319 324 330 332 330 329 327 327 326 325 326 327 330 332 330 329 327 325 324 323 321 319 318 316 314 314 315 312 308 306 314 320 320 320 321 320
307 307 309 309 309 312 322 328 331 332 333 332 328 328 326 325 322 326 326 326 329 329 328 326 324 323 321 319 319 320 317 315 312 314 316 313 312 311 308 317 319 319 319
305 306 307 307 308 318 328 332 334 333 332 329 330 326 323 322 324 326 324 324 325 327 327 326 324 322 320 320 319 319 317 316 315 313 312 312 313 313 311 309 314 316 317
304 305 309 312 320 330 333 333 333 330 330 328 326 326 323 323 323 322 322 321 321 323 325 325 323 322 320 320 320 320 319 318 317 315 314 312 311 311 313 311 308 311 316
303 309 314 320 326 332 331 331 331 326 326 325 324 325 323 323 322 323 322 320 319 320 321 322 321 320 320 321 320 320 320 319 317 317 315 315 313 314 317 312 310 310 317
314 317 320 323 328 329 327 330 328 323 324 323 322 322 322 322 321 322 322 320 320 321 322 322 321 321 322 322 321 321 320 320 319 318 317 316 316 313 314 315 311 309 314
316 319 323 325 327 325 324 327 324 323 323 322 322 322 322 322 321 321 321 321 320 322 322 321 321 322 323 324 323 322 321 322 321 319 317 316 316 315 314 319 318 313 311
317 321 324 324 325 324 323 324 324 323 322 322 323 323 322 322 321 321 321 320 320 320 321 321 322 322 324 323 323 321 322 322 322 320 320 318 317 317 315 315 317 315 312
318 322 323 323 324 323 323 322 323 323 322 323 323 322 322 322 321 321 321 320 319 321 321 322 323 324 323 322 320 322 324 324 323 323 319 319 319 318 319 319 316 315 314
320 321 322 323 323 322 322 322 323 323 322 323 322 321 321 320 319 320 320 320 319 321 321 322 324 325 324 322 321 322 325 323 322 322 320 318 320 317 318 319 317 316 316
320 321 322 323 323 322 322 322 322 322 321 322 321 320 320 319 319 320 320 318 318 319 320 321 321 324 324 323 323 325 325 322 322 321 321 318 320 322 320 319 319 319 320
320 321 321 322 323 323 323 322 321 323 322 322 321 320 319 319 319 320 319 317 318 319 322 324 326 325 324 324 327 327 325 322 321 321 321 320 323 321 321 320 320 320 319
319 320 320 321 322 321 322 322 320 321 323 322 321 320 323 321 320 320 318 319 319 323 326 326 322 321 320 316 320 325 321 321 321 322 324 324 324 321 320 320 320 319 318
319 320 321 322 322 321 321 321 320 320 323 322 325 325 325 321 319 319 319 319 320 323 325 321 320 317 317 301 309 318 322 323 321 321 322 321 319 316 313 314 315 318 319
319 320 321 322 322 322 322 318 319 319 322 326 326 326 323 321 321 320 318 317 321 323 323 318 316 314 314 300 305 310 321 320 322 322 321 321 319 319 318 310 310 311 310
319 320 321 322 321 321 320 317 318 320 324 326 326 324 322 321 320 320 317 318 320 323 319 314 314 313 313 300 303 309 321 323 323 322 321 320 319 318 319 320 319 319 319
320 321 322 322 321 318 317 317 318 320 323 326 324 323 321 319 319 316 316 316 316 316 315 315 314 314 314 300 303 314 323 323 322 321 322 321 319 303 306 318 315 315 312
319 320 322 322 321 317 316 317 318 320 320 324 324 322 320 319 319 318 317 317 317 317 319 316 315 311 316 300 303 314 323 322 320 320 317 307 311 301 305 319 316 314 315
318 320 321 319 319 315 316 316 317 318 321 324 326 321 320 320 320 319 318 319 318 320 318 316 314 314 313 311 302 306 322 322 320 319 317 312 299 300 301 308 318 314 316
319 321 320 318 314 317 317 313 315 319 321 323 322 320 319 322 321 319 319 320 318 317 315 314 314 314 318 304 300 301 309 313 321 319 318 309 297 298 298 306 298 301 308
320 321 319 315 315 317 317 313 315 316 320 320 319 318 320 321 320 319 318 318 317 316 315 316 316 315 317 314 299 299 299 303 316 320 310 297 295 297 299 297 299 305 314
319 318 316 315 313 314 315 316 313 318 320 319 318 319 320 318 319 320 319 318 316 316 316 316 315 313 314 314 314 312 309 304 308 305 307 305 303 302 303 306 309 316 315
319 317 317 315 315 315 314 313 315 320 319 320 320 320 319 319 318 316 316 319 318 317 318 316 315 314 314 315 309 311 314 314 309 311 314 317 316 314 315 316 314 314 314
315 318 317 316 316 316 315 313 318 320 320 319 320 319 319 318 317 313 310 298 300 301 305 305 312 316 306 298 297 298 299 297 299 316 317 317 317 316 316 316 316 313 312
Wind_Speed
12 12 13 13 9 9 7 9 10 9 10 7 8 5 9 7 6 6 9 8 7 9 9 5 5 5 5 5 3 2 4 2 2 1 2 3 3 3 4 3 3 4 5
14 15 13 10 9 12 11 8 9 9 9 7 6 4 6 3 5 5 6 9 12 10 8 7 5 6 4 4 4 4 2 2 4 3 1 1 3 2 3 2 4 5 3
14 13 12 12 10 10 9 7 8 8 7 8 8 5 7 6 4 4 4 4 6 7 7 6 5 5 4 4 4 4 6 3 2 4 4 2 3 1 3 2 4 4 3
12 9 13 13 9 10 5 7 7 9 9 11 8 12 7 8 3 5 3 3 5 6 6 6 6 5 4 5 4 4 3 3 3 1 2 1 2 2 1 2 2 3 2
10 13 13 11 8 7 6 8 10 9 9 9 11 8 8 4 5 6 8 5 4 6 6 6 6 6 4 4 5 3 4 3 3 3 2 1 1 1 2 2 2 3 2
10 10 7 4 2 6 8 8 11 9 10 9 9 11 11 9 7 6 6 4 3 4 5 6 5 4 4 5 5 4 5 5 4 3 3 4 3 3 2 1 1 1 2
9 7 1 4 6 10 9 8 10 8 8 9 8 8 9 9 10 9 6 6 4 3 5 5 5 4 5 5 4 4 5 5 4 6 4 4 4 3 3 3 1 2 1
5 5 6 6 8 9 8 10 9 10 9 8 7 7 8 5 5 6 6 4 4 4 5 5 5 5 5 4 5 3 4 4 5 6 5 4 4 4 3 4 4 3 2
7 7 7 7 10 9 7 10 10 10 10 9 8 7 7 8 7 7 5 4 4 3 5 5 5 4 4 5 5 4 5 5 4 5 4 4 3 4 4 3 3 5 4
8 8 8 8 7 8 8 10 11 11 9 9 8 7 7 7 7 6 6 5 4 4 5 4 3 2 3 5 5 3 4 5 4 3 4 5 3 4 4 4 3 2 4
10 10 8 8 8 8 9 9 11 12 9 9 8 8 6 7 6 6 5 6 5 5 5 4 3 3 2 3 3 4 3 5 2 3 4 5 4 3 4 4 3 3 3
10 10 10 10 10 10 9 10 10 10 9 9 8 7 7 6 6 6 6 6 6 4 5 4 3 2 2 3 3 3 4 4 4 5 4 4 3 4 3 3 5 4 2
13 11 11 10 10 10 9 9 8 9 7 7 7 6 6 6 6 6 6 5 5 5 3 3 2 3 2 2 4 3 4 5 4 4 5 4 4 4 5 5 6 6 6
13 12 10 10 10 10 10 9 7 7 7 7 7 7 6 6 6 6 6 5 4 4 2 3 4 3 2 3 4 2 4 5 3 2 2 5 5 8 7 7 9 8 9
14 12 11 10 9 9 9 8 7 7 6 6 6 6 6 6 6 5 4 4 4 3 5 6 5 3 3 4 4 3 4 5 4 2 2 5 7 10 8 7 9 12 9
14 13 13 12 11 11 10 9 8 7 6 6 6 7 7 6 6 5 4 4 3 4 6 5 5 3 3 6 6 4 4 5 4 4 6 6 9 9 11 10 9 9 14
16 15 14 13 12 11 10 9 9 6 7 8 7 7 7 6 6 6 4 3 3 5 6 4 5 2 3 7 4 6 4 5 5 5 5 5 5 8 9 11 12 13 13
16 15 13 12 11 9 8 7 7 7 7 8 8 6 6 6 6 6 5 3 4 5 6 4 4 3 3 6 4 8 5 5 5 6 6 6 7 8 10 12 11 10 9
11 14 13 12 10 9 8 8 7 7 6 9 8 7 6 7 6 7 6 3 5 5 4 3 4 3 3 6 6 7 5 5 7 7 6 7 8 10 12 13 13 13 10
8 11 12 10 11 8 9 9 8 8 7 8 9 7 6 6 6 6 6 3 3 4 4 4 3 4 4 5 6 7 4 5 6 6 7 11 8 13 13 13 13 13 11
10 8 11 12 13 10 10 9 8 9 7 8 9 7 6 7 6 6 3 5 5 6 5 5 3 4 3 3 8 10 4 5 5 6 5 4 10 12 12 12 12 11 11
13 13 12 9 7 11 12 8 9 8 7 9 8 7 7 4 5 7 4 6 6 6 5 5 3 2 3 5 5 9 9 7 6 6 6 4 9 12 12 8 16 17 12
13 14 13 11 8 10 12 11 9 7 7 8 7 6 6 5 5 6 5 4 5 5 4 5 4 2 2 3 5 9 10 10 6 5 9 10 10 12 12 15 15 12 8
5 11 13 13 10 7 9 12 8 7 10 9 7 6 6 6 5 3 4 4 4 4 4 4 5 3 3 3 4 4 5 10 8 10 7 8 8 9 9 6 4 5 6
2 6 12 12 13 11 9 7 9 8 8 9 8 6 5 6 5 3 2 2 2 5 5 4 4 5 4 4 7 8 5 5 7 9 5 5 5 5 5 5 3 4 5
11 6 3 5 8 11 9 7 9 10 10 8 7 6 6 4 4 4 3 7 4 2 6 10 6 2 4 10 10 10 12 15 12 5 5 4 4 5 6 5 4 3 5
Wind_Direction
265 265 263 264 262 255 225 198 181 185 163 158 160 170 186 163 161 165 165 150 146 177 180 180 162 154 178 198 170 154 232 277 194 204 271 258 240 262 242 233 207 225 203
275 269 263 262 244 244 228 212 197 162 178 172 171 140 149 115 134 142 148 155 173 160 159 170 169 177 168 181 179 199 203 224 179 163 97 288 313 271 235 227 225 218 219
255 265 269 254 254 235 227 205 204 163 144 120 113 100 100 104 97 116 122 172 162 149 161 152 164 166 170 191 197 192 189 207 206 210 153 129 223 44 336 257 227 198 201
250 247 261 265 236 236 168 173 147 127 128 144 131 148 142 147 145 149 117 129 162 152 144 153 161 165 182 197 200 189 181 154 189 221 214 63 140 171 186 221 199 176 199
241 248 248 251 243 208 172 137 129 132 132 131 139 134 114 105 127 119 124 134 131 142 143 153 166 178 178 201 193 185 192 182 162 173 150 142 45 76 117 297 7 81 52
246 248 281 297 135 119 116 124 122 124 124 129 128 131 132 131 122 121 127 132 125 130 156 171 162 168 182 193 198 207 200 198 198 190 194 165 165 183 155 156 302 135 61
278 286 193 120 124 125 109 107 124 113 108 109 110 125 127 130 135 143 143 141 141 155 176 155 172 184 199 200 187 201 211 199 195 199 207 183 197 154 138 138 169 118 112
225 177 143 124 107 104 99 112 118 104 99 105 106 104 119 122 124 132 135 144 147 156 172 173 186 202 202 204 203 202 208 204 214 210 204 196 199 165 181 164 147 95 117
179 146 123 117 109 106 105 120 113 103 103 103 103 104 113 119 126 120 114 137 133 159 166 176 189 208 217 221 222 207 212 202 219 228 196 196 210 181 185 192 156 147 147
134 124 121 111 106 106 109 109 114 113 115 109 112 113 113 110 115 125 143 146 160 162 150 167 200 232 240 235 220 236 235 205 210 219 205 198 202 197 168 189 175 141 136
138 129 126 115 115 114 112 114 116 118 116 118 115 119 124 123 125 134 145 161 155 146 162 187 201 217 247 252 225 215 216 227 215 171 200 195 184 184 177 161 161 152 125
133 128 127 127 129 126 120 123 123 125 135 133 133 130 128 133 134 146 155 160 157 160 176 200 221 222 219 234 242 230 174 182 203 180 168 191 161 152 145 140 144 137 133
131 135 134 139 137 133 128 126 130 138 134 129 126 129 141 150 153 156 156 168 146 167 208 211 237 193 223 264 260 220 212 159 177 184 180 175 144 119 117 125 118 116 108
139 140 140 143 140 138 140 141 142 146 145 140 147 151 160 163 159 159 160 163 165 155 214 160 127 122 60 358 339 192 173 159 149 148 168 162 144 135 130 132 130 126 117
145 150 148 147 145 142 149 145 150 159 151 142 147 160 160 150 146 154 160 177 171 121 114 113 116 90 62 25 346 74 114 125 118 73 134 121 133 140 142 141 140 132 129
151 157 151 154 154 158 161 156 164 171 139 144 148 158 145 146 152 154 181 154 130 118 114 127 121 91 64 2 352 109 106 92 82 77 93 113 119 119 115 116 109 137 139
162 160 158 162 164 166 165 163 174 145 145 147 150 147 153 151 157 163 167 155 126 122 117 129 116 88 59 15 35 109 101 104 100 90 90 89 101 110 117 102 97 88 85
165 160 160 164 168 160 168 147 149 147 157 158 152 155 154 153 159 158 171 136 113 121 128 154 129 122 60 20 103 95 97 93 93 93 92 96 100 119 128 128 105 101 91
177 161 164 166 158 159 161 147 143 149 157 155 152 156 165 154 157 164 160 139 121 124 144 155 141 134 76 34 116 95 88 95 92 97 90 106 113 114 112 110 103 95 84
164 163 163 158 161 164 150 147 151 154 167 157 157 159 172 158 166 162 157 142 132 140 130 136 136 124 101 57 125 105 101 100 95 91 83 87 112 112 111 115 110 112 116
154 152 156 167 173 154 148 157 153 175 175 147 158 156 164 165 163 147 146 135 125 126 128 118 94 97 70 86 132 122 116 119 110 110 107 109 118 112 109 121 120 120 118
153 156 158 165 162 161 155 150 172 180 151 153 156 165 164 162 151 147 132 115 120 123 128 116 96 70 72 64 134 131 129 122 119 123 120 120 116 109 90 89 122 117 111
165 163 163 147 160 169 160 159 192 152 145 143 152 157 139 148 148 137 131 114 117 127 136 132 142 148 91 80 124 134 124 103 98 127 122 113 103 95 101 126 126 115 114
171 156 151 157 161 169 165 174 150 158 148 153 144 147 146 141 138 126 137 134 144 139 140 147 160 155 124 115 120 118 107 100 92 102 105 107 90 81 105 111 87 108 133
54 154 161 164 171 166 171 148 150 150 148 153 151 151 137 142 138 99 130 154 154 154 162 172 158 154 161 189 159 150 140 132 123 115 123 132 122 116 126 135 110 115 131
37 58 94 150 160 169 171 145 154 152 145 147 152 158 153 155 148 145 124 54 33 157 171 152 153 157 133 144 148 142 128 126 135 117 144 142 133 144 149 158 151 153 156